Regional Weather Roundup
Issued by NWS

Home | Current Version | Previous Version | Text Only | Print | Product List | Glossary On
Versions: 1 2 3 4 5 6 7 8 9 10 11 12 13 14 15 16 17 18 19 20 21 22 23 24 25 26 27 28 29 30 31 32 33 34 35 36 37 38 39 40 41 42 43 44 45 46 47 48 49 50
000
ASPQ40 PGUM 180612
RWRPQ
WEATHER ROUNDUP FOR THE MARIANAS AND MICRONESIA
NATIONAL WEATHER SERVICE TIYAN GU
400 PM CHST THU SEP 18 2014

GUZ001>004-180700-
MARIANA ISLANDS-

CITY           SKY/WX    TMP DP  RH WIND       PRES   REMARKS
GUAM AIRPORT   SUNNY     90  72  55 N9        29.87S HX  96
ANDERSEN AFB   SUNNY     84  75  74 N12       29.87S HX  92
ROTA AIRPORT   SUNNY     84  73  70 N9        29.87F HX  91
TINIAN AP      MOSUNNY   86  75  70 N12       29.85R HX  95
SAIPAN AP      MOSUNNY   86  75  70 NE7       29.86S HX  95

$$

PMZ161-180700-
REPUBLIC OF PALAU-

CITY           SKY/WX    TMP DP  RH WIND       PRES   REMARKS
KOROR AP       PTSUNNY   88  77  70 SW10G18   29.81F HX 100
KOROR WSO      PTSUNNY   88  75  66 S9        29.80F HX  97

$$

PMZ171>174-180700-
FEDERATED STATES OF MICRONESIA-

CITY           SKY/WX    TMP DP  RH WIND       PRES   REMARKS
YAP AIRPORT    PTSUNNY   84  75  74 SW8       29.83F HX  92
CHUUK AP       CLOUDY    88  81  79 NE9       29.74S HX 105
POHNPEI AP     NOT AVBL
POHNPEI WSO    CLOUDY    84  79  84 S6        29.80R HX  96
KOSRAE AP      NOT AVBL

$$

PMZ181-180700-
REPUBLIC OF THE MARSHALL ISLANDS-

CITY           SKY/WX    TMP DP  RH WIND       PRES   REMARKS
KWAJALEIN AP   SUNNY     84  75  74 E6        29.77R HX  92
MAJURO AP      NOT AVBL
MAJURO WSO     PTCLDY    86  75  70 CALM      29.77R HX  95

$$



USA.gov is the U.S. government's official web portal to all federal, state and local government web resources and services.